Retour au catalogue

COSMOS 2395

GLONASS

ActifNavigationMEO
NORAD 27619·PAYLOAD·🇷🇺 Russia

Lancé Dec 25, 2002 depuis Baikonur Cosmodrome

Loading…

Prochains Passages (prochaines 24 heures)

TLE

FraisSource: Space-Track

Époque: Sep 13, 2026, 05:58 UTC

1 27619U 02060C   26256.24905875 -.00000051  00000-0  00000+0 0  9990
2 27619  65.3884 312.8119 0013124 242.6552 117.0118  2.13103315184510

Suivez COSMOS 2395 en temps réel avec AllMySat

Download on the App Store